Springfield-Branson National Airport Airport (SGF)

 

Airport Diagram
Current Weather/Forecast (VFR Conditions)
METAR KSGF 050252Z 09004KT 6SM BR CLR 23/22 A2995 RMK AO2 SLP130 T02330217 53005
TAF KSGF 050301Z 0503/0524 09004KT 6SM FU SKC FM050900 VRB03KT P6SM FEW200 FM051100 10005KT P6SM FEW250

All Charts
General
Chart Name Download
AIRPORT DIAGRAM
TAKEOFF MINIMUMS
ALTERNATE MINIMUMS
HOT SPOT

Approaches
Chart Name Download
ILS OR LOC RWY 02
ILS OR LOC RWY 14
RNAV (GPS) RWY 02
RNAV (GPS) RWY 14
RNAV (GPS) RWY 20
RNAV (GPS) RWY 32
VOR/DME OR TACAN RWY 02
VOR OR TACAN RWY 20
HI-TACAN RWY 20


Inbound Traffic (Arrivals)

No inbound traffic.


Outbound Traffic (Departures)

No outbound traffic.